Weather History for Moriarty, NM

Change the Weather History Date:

Monday, May 6, 2013

  Actual Average (KABQ) Record (KABQ)
Temperature  
Mean Temperature 55 °F 62 °F  
Max Temperature 67 °F 76 °F 92 °F (1947)
Min Temperature 43 °F 50 °F 29 °F (1975)
Degree Days  
Heating Degree Days 10 4  
Month to date heating degree days 26  
Since 1 July heating degree days 4130  
Cooling Degree Days 0 1  
Month to date cooling degree days 6  
Year to date cooling degree days 13  
Growing Degree Days 5 (Base 50)    
Moisture  
Dew Point 25 °F    
Average Humidity 31    
Maximum Humidity 62    
Minimum Humidity 21    
Precipitation  
Precipitation 0.00 in 0.01 in 0.68 in (1969)
Month to date precipitation 0.09  
Year to date precipitation 2.13  
Snow  
Snow 0.00 in - - ()
Month to date snowfall  
Since 1 July snowfall  
Snow Depth -    
Sea Level Pressure  
Sea Level Pressure 30.09 in    
Wind  
Wind Speed 10 mph (South)    
Max Wind Speed 25 mph    
Max Gust Speed 33 mph    
Visibility 10 miles    
Events Rain    
T = Trace of Precipitation, MM = Missing Value Source: NWS Daily Summary

Daily Weather History Graph

Daily Weather History Graph

Search for Another Location

Airport:

Trip Planner

Search our weather history database for the weather conditions in past years. The results will help you decide how hot, cold, wet, or windy it might be!

Date:

Astronomy

May. 06, 2013 Rise Set
Actual Time 6:07 AM MDT 7:53 PM MDT
Civil Twilight 5:40 AM MDT 8:21 PM MDT
Nautical Twilight 5:07 AM MDT 8:54 PM MDT
Astronomical Twilight 4:32 AM MDT 9:29 PM MDT
Moon 4:04 AM MDT (5/6) 5:02 PM MDT (5/6)
Length of Visible Light 14h 40m
Length of Day
13h 45m
Waning Crescent, 10% of the Moon is Illuminated
May 6
Waning Crescent
May 9
New
May 17
First Quarter
May 24
Full
May 31
Last Quarter

Hourly Weather History & Observations

Time (MDT) Temp. Windchill Dew Point Humidity Pressure Visibility Wind Dir Wind Speed Gust Speed Precip Events Conditions
12:15 AM 44.4 °F 41.2 °F 11.3 °F 26% 30.15 in 10.0 mi NNW 5.8 mph - N/A   Mostly Cloudy
12:35 AM 43.0 °F 39.5 °F 11.7 °F 28% 30.14 in 10.0 mi NNW 5.8 mph - N/A   Mostly Cloudy
12:55 AM 43.9 °F 41.3 °F 12.0 °F 27% 30.14 in 10.0 mi North 4.6 mph - N/A   Mostly Cloudy
1:15 AM 43.2 °F 41.5 °F 11.8 °F 28% 30.13 in 10.0 mi North 3.5 mph - N/A   Mostly Cloudy
1:35 AM 44.6 °F 43.1 °F 12.2 °F 27% 30.12 in 10.0 mi NE 3.5 mph - N/A   Mostly Cloudy
1:55 AM 44.8 °F - 12.9 °F 28% 30.12 in 10.0 mi Calm Calm - N/A   Overcast
2:15 AM 51.3 °F - 16.5 °F 25% 30.12 in 10.0 mi SSE 8.1 mph - N/A   Overcast
2:35 AM 52.0 °F - 17.1 °F 25% 30.11 in 10.0 mi SE 10.4 mph - N/A   Mostly Cloudy
2:55 AM 50.9 °F - 17.2 °F 26% 30.10 in 10.0 mi SE 12.7 mph - N/A   Mostly Cloudy
3:15 AM 50.9 °F - 17.8 °F 27% 30.11 in 10.0 mi SE 11.5 mph - N/A   Overcast
3:35 AM 50.5 °F - 18.1 °F 28% 30.11 in 10.0 mi SE 16.1 mph - N/A   Mostly Cloudy
3:55 AM 50.2 °F - 18.3 °F 28% 30.10 in 10.0 mi SE 13.8 mph - N/A   Mostly Cloudy
4:15 AM 50.2 °F - 18.5 °F 29% 30.10 in 10.0 mi ESE 11.5 mph - N/A   Scattered Clouds
4:55 AM 50.0 °F - 18.9 °F 29% 30.08 in 10.0 mi SE 10.4 mph - N/A   Scattered Clouds
5:15 AM 50.0 °F - 18.9 °F 29% 30.08 in 10.0 mi ESE 9.2 mph - N/A   Scattered Clouds
5:35 AM 50.2 °F - 18.5 °F 29% 30.08 in 10.0 mi ESE 9.2 mph - N/A   Mostly Cloudy
5:55 AM 50.5 °F - 18.5 °F 28% 30.09 in 10.0 mi ESE 9.2 mph - N/A   Mostly Cloudy
6:15 AM 51.1 °F - 19.2 °F 29% 30.10 in 10.0 mi ESE 10.4 mph - N/A   Overcast
6:35 AM 50.7 °F - 20.3 °F 30% 30.08 in 10.0 mi East 11.5 mph - N/A   Overcast
6:55 AM 50.7 °F - 19.9 °F 30% 30.10 in 10.0 mi East 6.9 mph - N/A   Overcast
7:15 AM 50.9 °F - 20.1 °F 30% 30.10 in 10.0 mi East 8.1 mph - N/A   Mostly Cloudy
7:35 AM 51.6 °F - 20.3 °F 29% 30.10 in 10.0 mi ESE 11.5 mph - N/A   Clear
7:55 AM 53.6 °F - 20.7 °F 28% 30.10 in 10.0 mi SE 6.9 mph - N/A   Clear
8:15 AM 55.0 °F - 21.2 °F 27% 30.10 in 10.0 mi SE 13.8 mph - N/A   Scattered Clouds
8:35 AM 55.4 °F - 21.7 °F 27% 30.11 in 10.0 mi SSE 13.8 mph - N/A   Scattered Clouds
8:55 AM 56.5 °F - 21.7 °F 26% 30.11 in 10.0 mi SSE 16.1 mph - N/A   Scattered Clouds
9:15 AM 58.3 °F - 21.9 °F 25% 30.11 in 10.0 mi SSE 13.8 mph - N/A   Scattered Clouds
9:35 AM 58.6 °F - 21.7 °F 24% 30.11 in 10.0 mi SSE 12.7 mph - N/A   Scattered Clouds
9:55 AM 59.5 °F - 25.7 °F 27% 30.11 in 10.0 mi SSW 17.3 mph 25.3 mph N/A   Mostly Cloudy
10:15 AM 56.8 °F - 34.9 °F 44% 30.12 in 10.0 mi SSW 25.3 mph 33.4 mph N/A   Overcast
10:35 AM 54.3 °F - 37.4 °F 53% 30.12 in 10.0 mi South 16.1 mph - N/A   Overcast
10:55 AM 56.7 °F - 37.8 °F 49% 30.12 in 10.0 mi South 17.3 mph - N/A   Scattered Clouds
11:15 AM 58.5 °F - 38.3 °F 47% 30.11 in 10.0 mi South 15.0 mph 19.6 mph N/A   Clear
11:35 AM 56.1 °F - 39.0 °F 53% 30.10 in 10.0 mi SSE 25.3 mph - N/A Rain Rain
11:55 AM 51.3 °F - 38.5 °F 62% 30.10 in 10.0 mi SE 11.5 mph 19.6 mph N/A   Light Drizzle
12:15 PM 57.0 °F - 36.0 °F 45% 30.10 in 10.0 mi SE 13.8 mph - N/A   Scattered Clouds
12:35 PM 61.5 °F - 35.2 °F 37% 30.08 in 10.0 mi South 15.0 mph 19.6 mph N/A   Mostly Cloudy
12:55 PM 63.5 °F - 31.8 °F 31% 30.07 in 10.0 mi WSW 21.9 mph - N/A   Mostly Cloudy
1:15 PM 66.9 °F - 28.6 °F 24% 30.08 in 10.0 mi West 16.1 mph 27.6 mph N/A   Scattered Clouds
1:35 PM 64.0 °F - 29.1 °F 27% 30.08 in 10.0 mi WSW 24.2 mph 32.2 mph N/A   Scattered Clouds
1:55 PM 59.4 °F - 33.3 °F 37% 30.10 in 10.0 mi SW 23.0 mph 27.6 mph N/A   Mostly Cloudy
2:15 PM 61.2 °F - 33.1 °F 35% 30.08 in 10.0 mi SW 16.1 mph 21.9 mph N/A   Mostly Cloudy
2:35 PM 64.2 °F - 30.0 °F 28% 30.07 in 10.0 mi SW 20.7 mph 26.5 mph N/A   Scattered Clouds
2:55 PM 66.0 °F - 30.4 °F 26% 30.07 in 10.0 mi SW 16.1 mph 27.6 mph N/A   Scattered Clouds
3:15 PM 64.8 °F - 30.9 °F 28% 30.06 in 10.0 mi SW 18.4 mph 23.0 mph N/A   Mostly Cloudy
3:35 PM 65.8 °F - 30.0 °F 26% 30.06 in 10.0 mi WSW 17.3 mph 25.3 mph N/A   Mostly Cloudy
3:55 PM 66.9 °F - 27.3 °F 23% 30.05 in 10.0 mi WSW 16.1 mph 26.5 mph N/A   Overcast
4:15 PM 67.5 °F - 26.8 °F 22% 30.05 in 10.0 mi WSW 18.4 mph 27.6 mph N/A   Mostly Cloudy
4:35 PM 67.6 °F - 26.2 °F 21% 30.06 in 10.0 mi WSW 18.4 mph 26.5 mph N/A   Scattered Clouds
4:55 PM 67.8 °F - 25.9 °F 21% 30.05 in 10.0 mi West 21.9 mph 27.6 mph N/A   Clear
5:15 PM 66.9 °F - 26.8 °F 22% 30.05 in 10.0 mi WSW 16.1 mph 23.0 mph N/A   Scattered Clouds
5:35 PM 66.7 °F - 27.3 °F 23% 30.05 in 10.0 mi West 11.5 mph 21.9 mph N/A   Scattered Clouds
5:55 PM 65.7 °F - 26.6 °F 23% 30.05 in 10.0 mi West 13.8 mph - N/A   Mostly Cloudy
6:15 PM 65.3 °F - 27.3 °F 24% 30.05 in 10.0 mi WSW 4.6 mph - N/A   Mostly Cloudy
6:55 PM 64.8 °F - 26.6 °F 24% 30.05 in 10.0 mi WSW 8.1 mph - N/A   Mostly Cloudy
7:15 PM 63.5 °F - 26.4 °F 25% 30.06 in 10.0 mi West 6.9 mph - N/A   Mostly Cloudy
7:35 PM 61.3 °F - 26.2 °F 26% 30.06 in 10.0 mi SW 6.9 mph - N/A   Scattered Clouds
7:55 PM 58.1 °F - 24.8 °F 28% 30.07 in 10.0 mi SSW 6.9 mph - N/A   Scattered Clouds
8:15 PM 55.4 °F - 24.6 °F 30% 30.07 in 10.0 mi South 5.8 mph - N/A   Scattered Clouds
8:35 PM 56.8 °F - 25.7 °F 30% 30.08 in 10.0 mi South 5.8 mph - N/A   Mostly Cloudy
8:55 PM 55.8 °F - 25.7 °F 31% 30.08 in 10.0 mi South 6.9 mph - N/A   Mostly Cloudy
9:15 PM 55.8 °F - 26.2 °F 32% 30.08 in 10.0 mi SSE 8.1 mph - N/A   Scattered Clouds
9:35 PM 53.8 °F - 26.1 °F 34% 30.09 in 10.0 mi SSE 6.9 mph - N/A   Mostly Cloudy
9:55 PM 52.2 °F - 26.1 °F 36% 30.10 in 10.0 mi Calm Calm - N/A   Scattered Clouds
10:15 PM 52.7 °F - 26.6 °F 36% 30.10 in 10.0 mi Calm Calm - N/A   Scattered Clouds
10:35 PM 54.0 °F - 27.5 °F 36% 30.11 in 10.0 mi WSW 6.9 mph - N/A   Overcast
10:55 PM 57.9 °F - 31.3 °F 36% 30.11 in 10.0 mi WNW 12.7 mph 24.2 mph N/A   Overcast
11:15 PM 55.4 °F - 31.1 °F 40% 30.11 in 10.0 mi WNW 8.1 mph - N/A   Mostly Cloudy
11:35 PM 55.6 °F - 32.0 °F 41% 30.11 in 10.0 mi West 8.1 mph - N/A   Overcast
11:55 PM 55.4 °F - 32.0 °F 41% 30.11 in 10.0 mi NW 5.8 mph - N/A Rain Light Rain